Weather in Hoorn

Netherlands     52°38′50″N   5°04′45″E
temp.,
°C
wind,
m/s
gust,
m/s
humid.,
%
clouds,
%
prec.,
mm/h
press.,
hPa
HPBL,
m
14 may, fri
fri1423:00+8ne4794100 0.0 1008157
02:00+8ne349691 0.0 100884
05:00+8nne2395100 0.0 100780
08:00+10n2383100 0.0 1007345
11:00+11n3375100 0.0 1008655
14:00+12n4374100 0.0 1008713
17:00+11n447811 0.0 1008510
20:00+10n34855 0.0 1008374
15 may, sat
sat1523:00+6nne23933 0.0 100831
02:00+6ne229344 0.0 100715
05:00+6ne119462 0.0 100512
08:00+9ene239097 0.1 1005267
11:00+10e2287100 0.1 1003567
14:00+10nw1290100 0.6 1003229
17:00+12nw2277100 1.3 1002609
20:00+11nw1287100 2.0 1001153
16 may, sun
sun1623:00+8ssw2397100 2.3 1002103
02:00+8s3496100 2.9 1001105
05:00+7ssw369867 0.1 1000131
08:00+9ssw51093100 0.6 1000490
11:00+10sw71087100 0.9 1000960
14:00+12sw688099 2.4 10011014
17:00+13wsw686933 0.3 10001042
20:00+11sw48839 0.3 1000541
17 may, mon
mon1723:00+8s339275 0.0 100041
02:00+8s369773 0.4 999128
05:00+9s5997100 0.3 998323
08:00+9se4696100 0.5 998336
11:00+12wsw688985 0.8 998777
14:00+13w811778 1.8 10001196
17:00+13w797728 0.3 10011049
20:00+11w57873 0.4 1003562
18 may, tue
tue1823:00+7w349734 0.0 100460
02:00+7w2297100 0.0 100530
05:00+7w3397100 0.0 100649
08:00+9wsw4795100 2.6 1007326
11:00+11w8118583 0.6 1009945
14:00+13w810747 1.2 10091196
17:00+12w687161 0.4 10091213
20:00+10wsw5885100 0.6 1010453